TimeMST,TemperatureF,Dew PointF,Humidity,Sea Level PressureIn,VisibilityMPH,Wind Direction,Wind SpeedMPH,Gust SpeedMPH,PrecipitationIn,Events,Conditions,WindDirDegrees,DateUTC
12:55 AM,15.8,15.8,100,29.73,2.0,North,8.1,-,N/A,Snow,Light Snow,10,2013-02-21 07:55:00
1:55 AM,14.0,14.0,100,29.75,3.0,North,8.1,-,N/A,Snow,Light Snow,10,2013-02-21 08:55:00
2:55 AM,12.2,12.2,100,29.75,5.0,NNE,6.9,-,N/A,Snow,Light Snow,20,2013-02-21 09:55:00
3:55 AM,12.2,12.2,100,29.78,4.0,NE,4.6,-,N/A,Snow,Light Snow,50,2013-02-21 10:55:00
4:55 AM,12.2,12.2,100,29.80,4.0,NNE,3.5,-,N/A,Snow,Light Snow,20,2013-02-21 11:55:00
5:12 AM,12.2,12.2,100,29.69,4.0,North,3.5,-,N/A,Snow,Light Snow,350,2013-02-21 12:12:00
5:55 AM,12.2,12.2,100,29.83,4.0,NNE,3.5,-,N/A,Snow,Light Snow,20,2013-02-21 12:55:00
6:20 AM,12.2,12.2,100,29.72,2.0,North,3.5,-,N/A,Snow,Light Snow,350,2013-02-21 13:20:00
6:35 AM,12.2,12.2,100,29.72,1.2,NNW,2.3,-,N/A,Snow,Light Snow,340,2013-02-21 13:35:00
6:55 AM,12.2,12.2,100,29.86,1.2,NNW,4.6,-,N/A,Snow,Light Snow,330,2013-02-21 13:55:00
7:55 AM,12.2,12.2,100,29.88,1.2,NW,6.9,-,N/A,Snow,Light Snow,310,2013-02-21 14:55:00
8:19 AM,14.0,14.0,100,29.75,3.0,NW,10.4,-,N/A,Snow,Light Snow,310,2013-02-21 15:19:00
8:55 AM,14.0,14.0,100,29.90,4.0,WNW,8.1,-,N/A,Snow,Light Snow,300,2013-02-21 15:55:00
9:55 AM,15.8,14.0,93,29.91,7.0,NNW,8.1,-,N/A,Snow,Light Snow,330,2013-02-21 16:55:00
10:55 AM,17.6,14.0,86,29.91,7.0,NW,11.5,-,N/A,Snow,Light Snow,320,2013-02-21 17:55:00
11:48 AM,17.6,14.0,86,29.77,7.0,NW,11.5,-,N/A,Snow,Light Snow,320,2013-02-21 18:48:00
11:55 AM,19.4,14.0,80,29.90,7.0,NNW,10.4,-,N/A,Snow,Light Snow,330,2013-02-21 18:55:00
12:55 PM,19.4,15.8,86,29.88,7.0,NW,9.2,-,N/A,,Mostly Cloudy,310,2013-02-21 19:55:00
1:55 PM,21.2,15.8,80,29.87,7.0,NNW,10.4,-,N/A,,Mostly Cloudy,330,2013-02-21 20:55:00
2:55 PM,21.2,17.6,86,29.88,7.0,NW,8.1,-,N/A,,Mostly Cloudy,320,2013-02-21 21:55:00
3:21 PM,21.2,17.6,86,29.75,7.0,North,12.7,-,N/A,Snow,Light Snow,350,2013-02-21 22:21:00
3:27 PM,21.2,17.6,86,29.75,2.0,NNW,10.4,-,N/A,Snow,Light Snow,330,2013-02-21 22:27:00
3:55 PM,21.2,17.6,86,29.90,3.0,North,5.8,-,N/A,Snow,Light Snow,350,2013-02-21 22:55:00
4:55 PM,21.2,19.4,93,29.92,2.0,NE,2.3,-,N/A,Snow,Light Snow,40,2013-02-21 23:55:00
5:26 PM,19.4,19.4,100,29.78,3.0,Calm,Calm,-,N/A,Snow,Light Snow,0,2013-02-22 00:26:00
5:55 PM,19.4,19.4,100,29.96,6.0,NNW,3.5,-,N/A,Snow,Light Snow,330,2013-02-22 00:55:00
6:45 PM,17.6,17.6,100,29.81,7.0,NNW,4.6,-,N/A,,Mostly Cloudy,330,2013-02-22 01:45:00
6:55 PM,17.6,17.6,100,29.99,10.0,NNW,3.5,-,N/A,,Mostly Cloudy,330,2013-02-22 01:55:00
7:55 PM,15.8,15.8,100,30.00,10.0,NE,5.8,-,N/A,,Mostly Cloudy,50,2013-02-22 02:55:00
8:55 PM,10.4,10.4,100,30.03,10.0,South,4.6,-,N/A,,Scattered Clouds,170,2013-02-22 03:55:00
9:55 PM,15.8,14.0,93,30.00,10.0,ESE,4.6,-,N/A,,Scattered Clouds,110,2013-02-22 04:55:00
10:55 PM,10.4,8.6,92,30.01,10.0,South,8.1,-,N/A,,Scattered Clouds,180,2013-02-22 05:55:00
11:55 PM,10.4,8.6,92,30.00,10.0,South,9.2,-,N/A,,Partly Cloudy,180,2013-02-22 06:55:00